Lid_Strength_Index
-1 -1 -1 -1 -0 1 1 2 2 2 2 2 2 2 1 1 1 1 1 1 1 1 1 1 1 1 8 12 12 8 2 4 6 8 10 10 12 13 15 14 13 14 13 11 11 11 11
-1 -1 -1 0 1 2 2 2 2 2 2 2 2 2 2 1 1 1 1 1 1 2 2 1 1 2 11 14 10 8 8 7 7 8 10 10 12 12 13 14 14 13 13 12 11 11 10
-1 -1 -0 0 1 1 2 2 2 2 2 2 2 2 2 1 1 1 1 1 1 2 2 2 1 9 10 12 9 8 8 9 8 8 11 10 10 12 13 14 12 13 15 14 13 11 11
-1 -1 -0 0 1 1 2 2 2 2 1 2 2 2 2 2 2 2 2 2 2 2 2 2 2 10 13 8 9 8 8 9 8 8 9 10 10 12 13 13 14 16 16 18 15 12 12
-1 -1 -0 0 1 1 2 2 2 2 2 2 2 2 2 2 2 2 2 2 2 3 2 3 9 11 13 6 9 9 9 10 9 9 9 9 11 14 14 16 17 17 19 19 16 12 13
-1 -1 -0 0 1 1 2 2 2 2 2 2 2 2 2 2 2 2 3 2 2 5 7 8 9 11 10 11 10 9 10 9 10 10 10 12 14 16 16 17 19 19 20 19 19 16 13
-1 -1 -0 0 1 1 2 2 2 2 2 2 2 3 2 2 2 3 6 9 10 11 10 13 13 13 11 9 9 9 10 10 11 12 15 14 16 19 18 18 17 18 19 19 18 15 16
-1 -1 -0 0 1 1 2 2 2 2 2 2 3 3 3 3 3 4 8 10 11 11 13 11 11 11 10 10 11 9 9 12 13 15 14 15 18 17 15 15 17 17 19 18 16 15 17
-0 -0 -0 0 1 1 2 2 2 2 2 3 3 3 3 3 4 6 9 10 8 8 13 12 11 11 11 10 12 11 11 12 14 15 16 17 16 14 15 16 17 18 19 18 18 16 17
-0 -1 -0 -0 1 1 1 2 2 2 2 3 3 3 3 4 6 8 9 8 8 8 14 13 12 11 10 11 12 10 11 12 14 16 15 16 15 16 16 17 17 18 16 16 17 18 20
0 -0 0 0 1 1 1 2 2 2 2 3 3 3 3 4 8 9 8 8 8 9 19 13 12 9 10 12 12 10 11 12 15 15 15 15 16 16 16 16 16 16 16 17 17 19 20
0 0 0 0 1 2 1 1 1 2 2 3 3 3 4 6 8 8 7 8 8 13 19 14 11 12 12 12 11 10 12 11 13 14 14 15 14 15 16 16 16 15 17 17 17 18 21
0 0 0 0 1 2 2 2 1 2 2 3 3 3 5 6 8 8 7 8 13 17 13 14 14 13 14 14 13 13 15 15 16 16 17 15 15 15 15 17 16 16 18 20 21 22 21
0 0 0 0 1 1 2 2 2 2 2 3 3 3 4 6 7 7 8 10 17 15 14 13 13 13 15 14 14 13 16 16 16 16 18 18 18 16 16 17 18 18 18 20 22 23 22
0 0 1 0 0 2 2 2 2 2 2 3 4 5 5 6 7 7 9 14 15 14 13 14 14 15 16 14 15 14 16 17 17 15 17 18 17 15 16 16 16 18 19 18 20 23 23
1 0 -0 0 0 2 2 2 2 3 3 3 6 7 6 7 7 9 11 13 14 13 12 13 15 15 17 16 16 16 16 16 16 15 15 16 18 16 16 16 16 18 16 19 19 22 23
0 0 0 -0 1 2 2 2 2 3 3 4 7 8 6 7 7 10 13 14 13 13 12 14 14 15 15 16 16 17 16 15 15 16 16 16 16 16 15 17 17 18 19 19 19 20 22
0 0 0 0 1 2 3 2 3 3 3 6 9 11 6 6 10 14 14 13 12 13 13 13 14 14 15 15 16 16 16 14 14 14 16 16 17 19 16 16 17 17 17 18 19 20 20
-0 0 1 1 1 2 2 2 2 2 3 8 10 10 6 8 13 12 13 13 13 14 13 14 14 13 14 15 16 15 15 13 14 14 15 15 17 19 17 18 18 19 18 17 17 16 18
0 0 -0 0 1 1 2 2 2 2 2 7 9 11 9 10 12 13 13 13 13 13 13 13 13 14 15 16 15 16 15 13 14 14 10 12 16 16 17 15 15 17 16 16 15 17 16
0 0 1 1 1 1 1 2 2 2 2 6 9 10 11 12 11 13 13 13 13 13 14 13 15 14 15 16 17 16 16 15 14 12 12 13 18 17 15 14 14 14 15 14 15 15 16
1 1 1 2 2 2 2 2 3 3 3 7 9 10 12 12 12 14 13 14 13 13 14 14 15 13 15 15 13 14 13 14 13 15 14 15 16 17 17 16 15 16 15 14 14 13 13
4 3 2 2 2 2 3 3 2 3 4 7 8 9 9 10 14 14 13 12 13 12 12 12 13 14 14 13 12 11 11 11 11 13 15 16 16 17 17 17 16 17 15 14 15 14 13
5 4 4 3 2 3 3 3 3 3 4 6 6 8 10 12 13 13 12 12 11 11 13 12 12 12 11 10 10 11 14 13 14 13 12 14 15 15 17 16 20 15 13 13 13 13 13
6 5 5 4 4 3 3 3 3 3 4 6 6 8 10 13 13 12 12 12 11 11 12 11 10 10 10 10 12 14 14 15 15 15 13 12 12 16 17 17 15 13 14 15 15 14 14
7 6 6 6 5 5 4 3 3 3 3 4 5 6 9 10 12 10 12 11 12 12 12 11 11 11 10 11 12 16 17 15 15 15 17 14 12 14 16 18 20 16 15 14 13 16 14
7 7 7 6 6 5 4 4 3 3 3 4 5 5 7 10 9 10 12 12 11 12 12 11 12 12 10 12 14 15 15 12 16 15 15 17 16 16 16 17 15 14 14 11 16 14 13
6 7 7 7 6 5 5 4 3 3 3 4 5 4 6 8 9 9 8 10 9 10 11 10 10 11 12 13 13 13 14 13 13 12 14 14 15 16 15 17 18 13 12 13 13 12 13
6 5 6 6 5 4 4 4 3 3 3 3 6 4 3 6 7 6 6 6 6 6 7 8 9 10 9 11 11 11 14 13 13 16 14 14 12 14 13 13 12 15 14 15 14 14 15